Regional Weather Roundup
Issued by NWS

Home | Current Version | Previous Version | Text Only | Print | Product List | Glossary Off
Versions: 1 2 3 4 5 6 7 8 9 10 11 12 13 14 15 16 17 18 19 20 21 22 23 24 25 26 27 28 29 30 31 32 33 34 35 36 37 38 39 40 41 42 43 44 45 46 47 48 49 50

957
ASUS43 KFSD 211310
RWRSD

WEATHER ROUNDUP FOR SOUTH DAKOTA
NATIONAL WEATHER SERVICE SIOUX FALLS SD
700 AM CST TUE FEB 21 2017

NOTE: "FAIR" INDICATES FEW OR NO CLOUDS BELOW 12,000 FEET WITH NO
SIGNIFICANT WEATHER AND/OR OBSTRUCTIONS TO VISIBILITY.


SDZ001>005-009-010-012>017-211400-
NORTHWEST AND NORTH CENTRAL SOUTH DAKOTA

CITY           SKY/WX    TMP DP  RH WIND       PRES   REMARKS
BUFFALO          N/A     44  32  62 W14       29.66F
FAITH            N/A     43  34  70 SW12      29.73S
MOBRIDGE       CLEAR     37  29  72 SE3       29.68F
$$

SDZ012>016-024>037-041>051-057-063-072>074-211400-
SOUTHWEST AND SOUTH CENTRAL SOUTH DAKOTA

CITY           SKY/WX    TMP DP  RH WIND       PRES   REMARKS
RAPID CTY ARPT CLEAR     46  31  55 E5        29.75F
PIERRE         CLEAR     40  30  67 W9        29.74S
CUSTER         CLOUDY    45  29  53 W17G29    29.86F
ELLSWORTH AFB  PTCLDY    48  31  51 CALM      29.75F
PHILIP         CLEAR     50  31  48 W14       29.76S
PINE RIDGE     CLEAR     35  27  72 W6        29.86F
SPEARFISH      FAIR      52  32  46 SW29G41   29.73F
WINNER         FAIR      46  28  49 SW13      29.78F
$$

SDZ004>011-016>023-039-040-211400-
NORTHEAST SOUTH DAKOTA

CITY           SKY/WX    TMP DP  RH WIND       PRES   REMARKS
ABERDEEN       CLEAR     35  29  78 S13       29.71F WCI  26
WATERTOWN      CLEAR     34  32  92 S10       29.75F WCI  26
BROOKINGS      CLEAR     39  36  89 S15       29.78F
SISSETON         N/A     36  33  89 S8        29.72F
$$

SDZ017-020-022-023-036>040-048>070-211400-
SOUTHEAST SOUTH DAKOTA

CITY           SKY/WX    TMP DP  RH WIND       PRES   REMARKS
SIOUX FALLS    PTCLDY    40  34  79 S10       29.86F
HURON          CLEAR     37  31  78 S14       29.76S
CHAMBERLAIN    CLEAR     43  32  63 SW8       29.76F
MITCHELL       CLEAR     41  31  67 S16       29.80F
YANKTON        CLEAR     37  30  75 S8        29.87S
$$

ABBREVIATIONS USED IN REMARKS
   TC - TEMPERATURE IN CELSIUS
  WCI - WIND CHILL INDEX
   HX - HEAT INDEX
  VSB - VISIBILITY





USA.gov is the U.S. government's official web portal to all federal, state and local government web resources and services.